GORIZONT 32 [-]

Last updated on June 27, 2019, 3:44 a.m. UTC

1 23880U 96034A   19177.11247274  .00000010  00000-0  00000+0 0  9996
2 23880  14.3439  15.4366 0012597 312.9291 223.8822  1.00146452 84511
UTC
Height (km)
Latitude
Longitude
Inclination
Orbital Period
UTC large
Height (km)
Speed (km/s)
/
Latitude / Longitude
Inclination (degrees)
Orbital Period (minutes)
Azimuth
Elevation
Range (km)
Doppler Factor
iOS Compass Heading
iOS Angle

Next 30 passes for location: Hong Kong

Rise time Rise Azimuth (degrees) Set time Set Azimuth (degrees) Duration Max altitude (degrees)

No matching passes for this satellites